| time (UTC) | temp F | wind direction | speed knots | gust knots | rain 1hr in | rain 24hr in | rain mn in | humidity % | barometer mb |
| 20260504211512 | 68 | 260 | 1.7 | 4.3 | 0.00 | 0.00 | 0.00 | 35 | 1004.8 |
| 20260504210013 | 68 | 252 | 0.9 | 4.3 | 0.00 | 0.00 | 0.00 | 34 | 1004.9 |
| 20260504204531 | 69 | 285 | 0.0 | 7.0 | 0.00 | 0.00 | 0.00 | 33 | 1004.7 |
| 20260504203017 | 70 | 170 | 1.7 | 5.2 | 0.00 | 0.00 | 0.00 | 33 | 1004.8 |
| 20260504201508 | 68 | 103 | 0.9 | 3.5 | 0.00 | 0.00 | 0.00 | 34 | 1004.9 |
| 20260504200007 | 69 | 314 | 1.7 | 6.1 | 0.00 | 0.00 | 0.00 | 33 | 1004.9 |
| 20260504194507 | 69 | 276 | 0.9 | 7.0 | 0.00 | 0.00 | 0.00 | 33 | 1004.9 |
| 20260504193005 | 68 | 49 | 1.7 | 6.1 | 0.00 | 0.00 | 0.00 | 33 | 1004.9 |
| 20260504191504 | 68 | 72 | 0.9 | 4.3 | 0.00 | 0.00 | 0.00 | 34 | 1005.1 |
| 20260504190004 | 69 | 246 | 2.6 | 6.1 | 0.00 | 0.00 | 0.00 | 33 | 1005.0 |
| 20260504184502 | 69 | 236 | 0.9 | 6.1 | 0.00 | 0.00 | 0.00 | 33 | 1005.1 |
| 20260504183059 | 68 | 234 | 1.7 | 5.2 | 0.00 | 0.00 | 0.00 | 35 | 1005.2 |
| 20260504181603 | 67 | 58 | 1.7 | 5.2 | 0.00 | 0.00 | 0.00 | 35 | 1005.3 |
| 20260504180158 | 67 | 313 | 1.7 | 5.2 | 0.00 | 0.00 | 0.00 | 34 | 1005.4 |
| 20260504174614 | 67 | 277 | 1.7 | 6.1 | 0.00 | 0.00 | 0.00 | 34 | 1005.5 |
| 20260504173055 | 68 | 329 | 1.7 | 6.1 | 0.00 | 0.00 | 0.00 | 33 | 1005.5 |
| 20260504171554 | 66 | 215 | 1.7 | 4.3 | 0.00 | 0.00 | 0.00 | 34 | 1005.7 |
| 20260504081520 | 41 | 153 | 0.0 | 0.0 | 0.00 | 0.04 | 0.00 | 70 | 1008.7 |
| 20260504044603 | 41 | 293 | 0.9 | 1.7 | 0.00 | 0.05 | 0.00 | 61 | 1008.8 |
| 20260504043057 | 40 | 305 | 0.0 | 0.9 | 0.00 | 0.05 | 0.00 | 62 | 1008.7 |
| 20260504041552 | 40 | 306 | 0.0 | 0.9 | 0.00 | 0.05 | 0.00 | 64 | 1008.7 |
| 20260504040103 | 40 | 306 | 0.0 | 0.0 | 0.00 | 0.05 | 0.00 | 64 | 1008.6 |
| 20260504034609 | 40 | 306 | 0.0 | 0.9 | 0.00 | 0.11 | 0.05 | 65 | 1008.5 |
| 20260504033045 | 40 | 316 | 0.0 | 0.0 | 0.00 | 0.11 | 0.05 | 65 | 1008.6 |
| 20260504031546 | 40 | 316 | 0.0 | 0.0 | 0.00 | 0.11 | 0.05 | 66 | 1008.5 |
| 20260504024549 | 40 | 316 | 0.0 | 0.0 | 0.00 | 0.11 | 0.05 | 67 | 1008.4 |
| 20260504023044 | 40 | 316 | 0.0 | 0.0 | 0.00 | 0.11 | 0.05 | 65 | 1008.5 |
| 20260504021549 | 41 | 316 | 0.0 | 0.0 | 0.00 | 0.11 | 0.05 | 63 | 1008.5 |
| 20260504020043 | 41 | 316 | 0.0 | 0.0 | 0.00 | 0.11 | 0.05 | 62 | 1008.4 |
| 20260504014543 | 42 | 316 | 0.0 | 0.9 | 0.00 | 0.11 | 0.05 | 62 | 1008.3 |
| 20260504013049 | 42 | 316 | 0.0 | 0.9 | 0.00 | 0.11 | 0.05 | 61 | 1008.3 |
| 20260504011542 | 42 | 318 | 0.0 | 0.9 | 0.00 | 0.11 | 0.05 | 61 | 1008.0 |
| 20260504010041 | 43 | 318 | 0.0 | 0.9 | 0.00 | 0.11 | 0.05 | 59 | 1007.9 |
| 20260504004541 | 44 | 319 | 0.0 | 0.9 | 0.00 | 0.11 | 0.05 | 56 | 1007.7 |
| 20260504003040 | 44 | 319 | 0.0 | 1.7 | 0.00 | 0.11 | 0.05 | 56 | 1007.6 |
| 20260504001552 | 44 | 321 | 0.0 | 0.9 | 0.00 | 0.11 | 0.05 | 55 | 1007.6 |
| 20260504000039 | 46 | 321 | 0.0 | 1.7 | 0.00 | 0.11 | 0.05 | 52 | 1007.2 |
| 20260503234539 | 46 | 323 | 0.0 | 1.7 | 0.00 | 0.15 | 0.05 | 51 | 1007.2 |
| 20260503233040 | 46 | 330 | 0.0 | 1.7 | 0.00 | 0.15 | 0.05 | 50 | 1007.0 |
| 20260503231538 | 47 | 338 | 0.0 | 2.6 | 0.00 | 0.15 | 0.05 | 48 | 1006.8 |
| 20260503230038 | 48 | 315 | 0.9 | 5.2 | 0.00 | 0.15 | 0.05 | 47 | 1006.6 |
| 20260503224536 | 48 | 307 | 1.7 | 4.3 | 0.00 | 0.21 | 0.05 | 46 | 1006.4 |
| 20260503223036 | 48 | 300 | 1.7 | 5.2 | 0.00 | 0.21 | 0.05 | 45 | 1006.3 |
| 20260503221542 | 49 | 17 | 0.9 | 3.5 | 0.00 | 0.21 | 0.05 | 44 | 1006.1 |
| 20260503220036 | 49 | 347 | 1.7 | 5.2 | 0.00 | 0.21 | 0.05 | 43 | 1006.1 |
| 20260503214537 | 49 | 25 | 1.7 | 7.0 | 0.00 | 0.24 | 0.05 | 43 | 1006.0 |
| 20260503213040 | 49 | 319 | 2.6 | 8.7 | 0.00 | 0.24 | 0.05 | 42 | 1005.9 |